Weather History for EGPF - November, 2012

Change the Weather History Date:

Monday, November 5, 2012

  Actual Average Record
Temperature  
Mean Temperature 37 °F -  
Max Temperature 48 °F 46 °F 60 °F (2003)
Min Temperature 26 °F 36 °F 26 °F (2012)
Degree Days  
Heating Degree Days 28    
Moisture  
Dew Point 33 °F    
Average Humidity 88    
Maximum Humidity 100    
Minimum Humidity 66    
Precipitation  
Precipitation 0.00 in - - ()
Sea Level Pressure  
Sea Level Pressure 29.82 in    
Wind  
Wind Speed 3 mph ()    
Max Wind Speed 8 mph    
Max Gust Speed -    
Visibility 4.1 miles    
Events Fog    
Averages and records for this station are not official NWS values.
T = Trace of Precipitation, MM = Missing Value Source: Averaged Metar Reports

Daily Weather History Graph

Daily Weather History Graph

Search for Another Location

Airport or City:

Trip Planner

Search our weather history database for the weather conditions in past years. The results will help you decide how hot, cold, wet, or windy it might be!

Date:

Astronomy

Nov. 05, 2012 Rise Set
Actual Time 7:33 AM GMT 4:28 PM GMT
Civil Twilight 6:53 AM GMT 5:08 PM GMT
Nautical Twilight 6:08 AM GMT 5:52 PM GMT
Astronomical Twilight 5:25 AM GMT 6:35 PM GMT
Moon 9:50 PM GMT (11/5) 12:49 PM GMT (11/5)
Length of Visible Light 10h 15m
Length of Day
8h 54m
Waning Gibbous, 65% of the Moon is Illuminated
Nov 5
Waning Gibbous
Nov 7
Last Quarter
Nov 13
New
Nov 20
First Quarter
Nov 28
Full

Hourly Weather History & Observations

Time (GMT) Temp. Windchill Dew Point Humidity Pressure Visibility Wind Dir Wind Speed Gust Speed Precip Events Conditions
12:20 AM 28.4 °F - 28.4 °F 100% 29.65 in 3.7 mi Calm Calm - N/A Fog Patches of Fog
12:50 AM 28.4 °F - 26.6 °F 93% 29.65 in 3.7 mi Variable 2.3 mph - N/A Fog Patches of Fog
1:20 AM 28.4 °F 23.3 °F 28.4 °F 100% 29.65 in - SSW 4.6 mph - N/A   Partly Cloudy
1:50 AM 28.4 °F 23.3 °F 28.4 °F 100% 29.65 in 3.1 mi SW 4.6 mph - N/A   Mist
2:20 AM 28.4 °F - 28.4 °F 100% 29.65 in 0.2 mi Calm Calm - N/A Fog Light Freezing Fog
2:50 AM 28.4 °F - 26.6 °F 93% 29.68 in 0.2 mi Calm Calm - N/A Fog Light Freezing Fog
3:20 AM 26.6 °F - 26.6 °F 100% 29.68 in 0.2 mi Calm Calm - N/A Fog Light Freezing Fog
3:50 AM 28.4 °F - 28.4 °F 100% 29.68 in 0.4 mi Calm Calm - N/A Fog Light Freezing Fog
4:20 AM 28.4 °F - 26.6 °F 93% 29.68 in 3.1 mi SSW 2.3 mph - N/A   Mostly Cloudy
4:50 AM 26.6 °F - 26.6 °F 100% 29.71 in 3.1 mi Calm Calm - N/A   Mostly Cloudy
5:20 AM 28.4 °F 24.6 °F 28.4 °F 100% 29.71 in 3.1 mi ESE 3.5 mph - N/A   Mostly Cloudy
5:50 AM 30.2 °F - 30.2 °F 100% 29.71 in 3.1 mi Calm Calm - N/A   Mist
6:20 AM 30.2 °F - 30.2 °F 100% 29.71 in 4.3 mi East 2.3 mph - N/A   Unknown
6:50 AM 30.2 °F - 30.2 °F 100% 29.74 in 5.6 mi Calm Calm - N/A   Unknown
7:20 AM 32.0 °F - 30.2 °F 93% 29.74 in 4.3 mi Calm Calm - N/A   Scattered Clouds
7:50 AM 32.0 °F 28.7 °F 30.2 °F 93% 29.74 in 4.3 mi Variable 3.5 mph - N/A   Unknown
8:20 AM 30.2 °F - 30.2 °F 100% 29.77 in 4.3 mi Variable 2.3 mph - N/A Fog Fog
8:50 AM 32.0 °F 28.7 °F 32.0 °F 100% 29.77 in 4.3 mi Variable 3.5 mph - N/A Fog Fog
9:20 AM 33.8 °F - 32.0 °F 93% 29.77 in 4.3 mi Variable 2.3 mph - N/A Fog Fog
9:50 AM 37.4 °F - 35.6 °F 93% 29.80 in 4.3 mi Calm Calm - N/A Fog Fog
10:20 AM 37.4 °F - 37.4 °F 100% 29.80 in 5.6 mi Calm Calm - N/A   Unknown
10:50 AM 39.2 °F - 37.4 °F 93% 29.80 in - Calm Calm - N/A   Clear
11:20 AM 41.0 °F - 37.4 °F 87% 29.80 in - Variable 2.3 mph - N/A   Clear
11:50 AM 42.8 °F - 39.2 °F 87% 29.80 in - Variable 2.3 mph - N/A   Clear
12:20 PM 44.6 °F 42.2 °F 41.0 °F 87% 29.83 in - WSW 4.6 mph - N/A   Clear
12:50 PM 46.4 °F 42.9 °F 39.2 °F 76% 29.83 in - WNW 6.9 mph - N/A   Clear
1:20 PM 46.4 °F 42.9 °F 39.2 °F 76% 29.83 in - WNW 6.9 mph - N/A   Clear
1:50 PM 48.2 °F - 39.2 °F 71% 29.83 in - WNW 6.9 mph - N/A   Clear
2:20 PM 48.2 °F - 37.4 °F 66% 29.83 in - WNW 8.1 mph - N/A   Clear
2:50 PM 48.2 °F - 37.4 °F 66% 29.83 in 6.2 mi WNW 6.9 mph - N/A   Partly Cloudy
3:20 PM 46.4 °F 42.4 °F 37.4 °F 71% 29.86 in 6.2 mi WNW 8.1 mph - N/A   Partly Cloudy
3:50 PM 46.4 °F 42.9 °F 37.4 °F 71% 29.86 in 6.2 mi WNW 6.9 mph - N/A   Partly Cloudy
4:20 PM 42.8 °F 39.3 °F 37.4 °F 81% 29.86 in 6.2 mi West 5.8 mph - N/A   Partly Cloudy
4:50 PM 41.0 °F 36.4 °F 35.6 °F 81% 29.86 in 6.2 mi West 6.9 mph - N/A   Partly Cloudy
5:20 PM 41.0 °F 38.0 °F 35.6 °F 81% 29.89 in 6.2 mi West 4.6 mph - N/A   Partly Cloudy
5:50 PM 41.0 °F 36.4 °F 35.6 °F 81% 29.92 in 6.2 mi WSW 6.9 mph - N/A   Partly Cloudy
6:20 PM 41.0 °F 35.8 °F 35.6 °F 81% 29.92 in - West 8.1 mph - N/A   Clear
6:50 PM 41.0 °F 36.4 °F 35.6 °F 81% 29.95 in - WNW 6.9 mph - N/A   Clear
7:20 PM 39.2 °F 34.2 °F 33.8 °F 81% 29.95 in - West 6.9 mph - N/A   Clear
7:50 PM 37.4 °F 32.8 °F 32.0 °F 81% 29.95 in - WSW 5.8 mph - N/A   Clear
8:20 PM 33.8 °F 27.0 °F 30.2 °F 87% 29.95 in - SW 8.1 mph - N/A   Clear
8:50 PM 35.6 °F 29.2 °F 30.2 °F 81% 29.98 in - SW 8.1 mph - N/A   Clear
9:20 PM 33.8 °F 27.0 °F 30.2 °F 87% 29.98 in - WSW 8.1 mph - N/A   Clear
9:50 PM 33.8 °F 30.8 °F 30.2 °F 87% 29.98 in - Variable 3.5 mph - N/A   Clear
10:20 PM 33.8 °F - 32.0 °F 93% 29.98 in - South 2.3 mph - N/A   Clear
10:50 PM 33.8 °F - 30.2 °F 87% 29.98 in - Variable 2.3 mph - N/A   Clear
11:20 PM 32.0 °F - 28.4 °F 87% 29.98 in - Calm Calm - N/A   Clear
11:50 PM 33.8 °F 29.6 °F 30.2 °F 87% 29.98 in 6.2 mi SW 4.6 mph - N/A   Partly Cloudy